Regional Weather Roundup
Issued by NWS New Orleans/Baton Rouge, LA

Home | Current Version | Previous Version | Text Only | Print | Product List | Glossary On
Versions: 1 2 3 4 5 6 7 8 9 10 11 12 13 14 15 16 17 18 19 20 21 22 23 24 25 26 27
000
ASUS44 KLIX 101013
RWRLIX
NEW ORLEANS REGIONAL WEATHER ROUNDUP
NATIONAL WEATHER SERVICE NEW ORLEANS LA
400 AM CST SAT DEC 10 2016

NOTE: "FAIR" INDICATES FEW OR NO CLOUDS BELOW 12,000 FEET WITH NO
      SIGNIFICANT WEATHER AND/OR OBSTRUCTIONS TO VISIBILITY.
      SKY/WX - SKY CONDITION AND SIGNIFICANT WEATHER.
      TMP - AIR TEMPERATURE.     DP    - DEWPOINT TEMPERATURE.
      RH  - RELATIVE HUMIDITY.   PRES  - PRESSURE.
      HI  - HEAT INDEX.          WCI   - WIND CHILL INDEX.

*  THESE STATIONS ARE NOT NWS OR FAA STATIONS AND ARE NOT UNDER
   NWS QUALITY CONTROL.

LAZ038-040-048-061>063-065>067-069-101100-
SOUTHEAST LOUISIANA

CITY           SKY/WX    TMP DP  RH WIND       PRES   REMARKS
N.O. AUDUBON   NOT AVBL
N.O. INTL ARPT CLEAR     41  28  60 E7        30.52S
N.O. LAKEFRONT CLEAR     41  28  60 E18       30.52F
N.O. DOWNTOWN*   N/A     39  24  55 NE10      30.53S WCI  32
RESERVE*         N/A     39  27  60 NE8       30.53S WCI  34
SLIDELL        CLEAR     30  26  85 CALM      30.52F
BATON ROUGE    CLEAR     32  25  75 NE6       30.53F WCI  26
BOOTHVILLE     CLEAR     45  37  73 NE13G21   30.49R
BELLE CHASSE   CLEAR     37  28  70 N6        30.51F WCI  32
BOGALUSA*        N/A     31  24  75 CALM      30.55F
GALLIANO*      SUNNY     42  30  62 NE7       30.50F
NEW ROADS*       N/A     31  26  81 CALM      30.54F
GONZALES*        N/A     32  27  82 CALM      30.53S
HAMMOND*       CLEAR     30  27  86 CALM      30.53F
HOUMA*         CLEAR     38  28  69 NE9       30.51S WCI  31
PORT FOURCHON* SUNNY     46  36  66 NE15      30.48S

$$

MSZ070-080>082-101100-
SOUTHERN MISSISSIPPI

CITY           SKY/WX    TMP DP  RH WIND       PRES   REMARKS
MCCOMB         CLEAR     31  20  63 NE5       30.52S WCI  26
GULFPORT       CLEAR     34  22  61 NE6       30.52R WCI  29
BILOXI         CLEAR     33  23  66 NE10      30.51S WCI  25
PASCAGOULA     CLEAR     29  23  78 N5        30.52S WCI  24

$$

COASTAL OBSERVATIONS
LAKE AND NEARSHORE STATIONS

STATION/POSITION TIME  TEMP    WIND        PRES    WAVE
                       AIR SEA DIR/SP/G            HT/PER
                 (UTC) (F)     (DEG/KT/KT) (MB)    (FT/S)
PASCAGOULA       0948   34      20/  6/ 10 1033.0
WAVELAND YACHT   0948   36 54   50/ 10/ 14 1033.6
GRAND ISLE       0948   46 59   40/ 11/ 18 1032.1
SOUTHWEST PASS   0948           30/ 20/ 23   N/A
NEW CANAL        0948   42 55   70/ 19/ 22 1032.3
SHELL BEACH      0948   43 54   60/ 16/ 19 1033.1

OFFSHORE STATIONS

STATION/POSITION TIME  TEMP    WIND        PRES    WAVE
                       AIR SEA DIR/SP/G            HT/PER
                 (UTC) (F)     (DEG/KT/KT) (MB)    (FT/S)
64 S DAUPHIN ISL 0950   53 74   30/ 17/ 23 1031.2    5/ 6

$$





USA.gov is the U.S. government's official web portal to all federal, state and local government web resources and services.